Regional Weather Roundup
Issued by NWS Upton, NY

Current Version | Previous Version | Graphics & Text | Print | Product List | Glossary Off
Versions: 1 2 3 4 5 6 7 8 9 10 11 12 13 14 15 16 17 18 19 20 21 22 23 24 25 26 27 28 29 30 31 32 33 34 35 36 37 38 39 40 41 42 43 44 45 46 47 48 49 50

000
ASUS41 KOKX 222109
RWROKX

REGIONAL WEATHER ROUNDUP
NATIONAL WEATHER SERVICE NEW YORK NY
500 PM EDT MON MAY 22 2017

NOTE: "FAIR" INDICATES FEW OR NO CLOUDS BELOW 12,000 FEET WITH NO
SIGNIFICANT WEATHER AND/OR OBSTRUCTIONS TO VISIBILITY.

NYZ071-072-176-178-NJZ106-104-222200-
NEW YORK CITY METRO AREA

CITY           SKY/WX    TMP DP  RH WIND       PRES   REMARKS
Central Park   LGT RAIN  59  59 100 MISG      30.01F FOG
Wall St Helipt LGT RAIN  60  58  92 S6        30.00S
Bronx Bot Gard   N/A     59  57  94 SE5       29.98F
LaGuardia APRT LGT RAIN  61  59  93 S8        29.98F FOG
Kennedy INTL   LGT RAIN  60  60 100 S12       29.99F FOG
Breezy Point     N/A     57 N/A N/A S9          N/A
Newark/Liberty LGT RAIN  59  59 100 E5        29.98F FOG
Teterboro      LGT RAIN  61  60  97 S6        29.97F
$$

NYZ177-179-078>081-222200-
LONG ISLAND NEW YORK

CITY           SKY/WX    TMP DP  RH WIND       PRES   REMARKS
Jones Beach      N/A     57 N/A N/A S9          N/A
Matinecock PT    N/A     61 N/A N/A CALM        N/A
Farmingdale    LGT RAIN  59  59 100 S9        30.00F FOG
MacArthur/ISP  LGT RAIN  59  59 100 S10       30.00F FOG
Shirley        LGT RAIN  58  58 100 SE10      30.01F FOG
Mt Sinai Harb    N/A     59 N/A N/A S9          N/A
Westhampton    LGT RAIN  57  55  93 SE9       30.03F FOG
East Hampton   RAIN      55  54  97 SE8       30.03F
Montauk          N/A     54  54 100 VRB6      30.05F
$$

NYZ052-065-067-222200-
HUDSON VALLEY

CITY           SKY/WX    TMP DP  RH WIND       PRES   REMARKS
White Plains   LGT RAIN  57  55  93 VRB7      29.98F FOG
Larchmont Harb   N/A     57 N/A N/A NE9         N/A
Croton O-T Hud   N/A     57 N/A N/A MISG        N/A
Newburgh       CLOUDY    57  57 100 VRB6      30.00F FOG
Montgomery     CLOUDY    59  55  87 N3        29.99S
Poughkeepsie   LGT RAIN  57  55  93 SE5       29.98F FOG
Albany         LGT RAIN  57  53  86 S12       29.97S FOG
$$

NJZ001-105-106-008-010-013-015-019>022-104-222200-
NEW JERSEY

CITY           SKY/WX    TMP DP  RH WIND       PRES   REMARKS
Newark/Liberty LGT RAIN  59  59 100 E5        29.98F FOG
Teterboro      LGT RAIN  61  60  97 S6        29.97F
Caldwell       LGT RAIN  62  58  86 S5        29.99S
Somerville     CLOUDY    61  59  93 CALM      29.96F
Linden         DRIZZLE   61  59  94 CALM      29.98F
Perth Amboy      N/A     59 N/A N/A E3          N/A
Sussex         CLOUDY    60  57  89 CALM      29.99F
Andover          N/A     59  56  89 CALM      29.98F
Trenton        CLOUDY    63  61  93 N6        29.96F
Millville      CLOUDY    66  66 100 CALM      29.96F
Atlantic City  CLOUDY    64  62  93 E7        29.96F
Wrightstown    CLOUDY    63  62  97 E5        29.94F
Toms River     LGT RAIN  63  62  97 SE6       29.98F
Belmar         CLOUDY    61  60  97 E6        29.98F
$$

PAZ047>061-062-071-222200-
EASTERN PENNSYLVANIA

CITY           SKY/WX    TMP DP  RH WIND       PRES   REMARKS
Philadelphia   CLOUDY    65  62  90 CALM      29.97S
Allentown      CLOUDY    60  56  86 NE3       29.98F
Scranton       CLOUDY    63  55  75 S6        29.96F
$$

CTZ002-004>006-009-010-012-RIZ004-006-007-MAZ004-011-015-222200-
SOUTHERN NEW ENGLAND
 IN CT

CITY           SKY/WX    TMP DP  RH WIND       PRES   REMARKS
Bradley INTL   LGT RAIN  53  52  96 E5        30.03F FOG
Hartford       CLOUDY    54  53  97 CALM      30.03F FOG
Danbury        LGT RAIN  54  54 100 NE3       30.01F FOG
Wtrbury/Oxford LGT RAIN  54  48  82 S6        30.04F VSB 1
Bridgeport     LGT RAIN  57  55  93 E10       30.01F
Meriden        LGT RAIN  54  53  97 CALM      30.02F FOG
New Haven      CLOUDY    54  52  93 E10       30.02F
Chester        LGT RAIN  52  52 100 VRB5G12   30.04F
Groton         LGT RAIN  54  52  93 E14       30.05F FOG
Wilimantic     LGT RAIN  54  51  90 S6        30.06F FOG

 IN RI

CITY           SKY/WX    TMP DP  RH WIND       PRES   REMARKS
Providence     LGT RAIN  53  52  96 SE10      30.07F
Block Island   LGT RAIN  53  52  96 SE9       30.07F
Westerly       LGT RAIN  54  53  97 SE7       30.07F FOG
 IN MA

CITY           SKY/WX    TMP DP  RH WIND       PRES   REMARKS
Boston         CLOUDY    55  49  80 S13       30.07F
Worcester      NOT AVBL
Westfield      CLOUDY    53  52  96 S6        30.03F FOG
Provincetown   LGT RAIN  52  49  89 S8        30.10F
Nantucket      LGT RAIN  52  49  89 SE13      30.11F
$$

ANZ330-335-338-340-345-350-353-355-222200-
COASTAL MARINE OBSERVATIONS


STATION/POSITION TIME  SKY/WX   TEMP    WIND        PRES    VSBY  WAVE
                                AIR SEA DIR/SP/G                  HT/PER
                 (UTC)          (F)     (DEG/KT/KT) (MB)    (MI)  (FT/S)
NY HARB ENTRANCE 1950            57 57  160/ 10/ 12 1016.2          3/ 4
20 S FIRE ISLAND 2050            56 54  140/  6/  8 1015.3          3/ 6
GREAT SOUTH BAY  2030            58 64  140/ 10/ 14   N/A
23 SSW MONTAUK P 1950            55 54              1018.3          3/ 4
15 E BARNEGAT LI 2030               56                N/A           3/ 6
HUDSON CANYON    1950            58 53  140/ 10/ 10 1016.3          4/ 5
KINGS POINT      2036            59 58  200/  9/ 11 1015.3
EXECUTION ROCKS  2045            60                   N/A
CENTRAL LI SOUND NOT AVBL
EASTERN LI SOUND NOT AVBL
ROBBINS REEF     2042            59     140/ 11/ 12 1015.7
$$


>>>>>>>>>>>>>>>>>>>>>>>>>>>> KEY <<<<<<<<<<<<<<<<<<<<<<<<<<<
>                                                          <
>     SKY/WX - Sky Condition/Present Weather               <
>     TMP    - Temperature in Fahrenheit                   <
>     DP     - Dew Point in Fahrenheit                     <
>     RH     - Relative Humidity in Percent                <
>     WIND   - Direction (from) and Speed in MPH           <
>     PRES   - Mean Sea Level Pressure (inches of Hg)      <
>     WCI    - Wind Chill Index                            <
>     VSB    - VISIBILITY IN MILES                         <
>     HX     - HEAT INDEX                                  <
>     TC     - TEMPERATURE IN CELSIUS                      <
>     VRB    - VARIABLE WIND DIRECTION                     <
>                                                          <
>>>>>>>>>>>>>>>>>>>>>>>>>>>> KEY <<<<<<<<<<<<<<<<<<<<<<<<<<<



USA.gov is the U.S. government's official web portal to all federal, state and local government web resources and services.